When you browse on this site, cookies collect data to enhance your experience and personalize the content and advertising you see.
Visit our Privacy Policy to learn more. By continuing to use the site, you agree to this use of cookies and data.
  • In Spain
  • List of Countries
  • For 7 days
  • Water Temperature
  • Weather Map
  • Weather Widgets
  • user-avatar
    Login

    Hourly Weather Bhopal

    Today, 6 December, Friday

    Time Temperature Precipitation Wind Pressure Humidity
    00:00 +16°C° 0 mm 2 mps 720 mmHg 40%
    01:00 +14°C° 0 mm 3 mps 720 mmHg 41%
    02:00 +14°C° 0 mm 3 mps 719 mmHg 41%
    03:00 +14°C° 0 mm 3 mps 719 mmHg 43%
    04:00 +14°C° 0 mm 2 mps 719 mmHg 44%
    05:00 +14°C° 0 mm 2 mps 719 mmHg 46%
    06:00 +15°C° 0 mm 2 mps 720 mmHg 46%
    07:00 +14°C° 0 mm 3 mps 720 mmHg 46%
    08:00 +16°C° 0 mm 3 mps 721 mmHg 46%
    09:00 +18°C° 0 mm 3 mps 721 mmHg 41%
    10:00 +20°C° 0 mm 3 mps 721 mmHg 36%
    11:00 +22°C° 0 mm 3 mps 721 mmHg 31%
    12:00 +24°C° 0 mm 3 mps 720 mmHg 30%
    13:00 +25°C° 0 mm 3 mps 720 mmHg 28%
    14:00 +26°C° 0 mm 3 mps 719 mmHg 27%
    15:00 +24°C° 0 mm 3 mps 719 mmHg 30%
    16:00 +23°C° 0 mm 2 mps 719 mmHg 34%
    17:00 +20°C° 0 mm 2 mps 719 mmHg 37%
    18:00 +20°C° 0 mm 2 mps 719 mmHg 38%
    19:00 +19°C° 0 mm 2 mps 719 mmHg 39%
    20:00 +18°C° 0 mm 2 mps 720 mmHg 41%
    21:00 +17°C° 0 mm 2 mps 719 mmHg 41%
    22:00 +17°C° 0 mm 3 mps 719 mmHg 42%
    23:00 +16°C° 0 mm 3 mps 719 mmHg 43%

    Tomorrow, 7 December, Saturday

    Time Temperature Precipitation Wind Pressure Humidity
    00:00 +16°C° 0 mm 2 mps 719 mmHg 44%
    01:00 +16°C° 0 mm 2 mps 718 mmHg 45%
    02:00 +15°C° 0 mm 2 mps 718 mmHg 46%
    03:00 +15°C° 0 mm 2 mps 718 mmHg 46%
    04:00 +15°C° 0 mm 2 mps 719 mmHg 46%
    05:00 +15°C° 0 mm 2 mps 719 mmHg 46%
    06:00 +16°C° 0 mm 2 mps 719 mmHg 47%
    07:00 +17°C° 0 mm 2 mps 720 mmHg 47%
    08:00 +18°C° 0 mm 2 mps 720 mmHg 48%
    09:00 +19°C° 0 mm 2 mps 720 mmHg 44%
    10:00 +21°C° 0 mm 2 mps 720 mmHg 40%
    11:00 +24°C° 0 mm 2 mps 720 mmHg 37%
    12:00 +25°C° 0 mm 2 mps 719 mmHg 35%
    13:00 +26°C° 0 mm 2 mps 719 mmHg 34%
    14:00 +26°C° 0 mm 2 mps 718 mmHg 32%
    15:00 +25°C° 0 mm 2 mps 718 mmHg 35%
    16:00 +24°C° 0 mm 2 mps 718 mmHg 38%
    17:00 +22°C° 0 mm 1 mps 718 mmHg 41%
    18:00 +22°C° 0 mm 1 mps 718 mmHg 42%
    19:00 +21°C° 0 mm 1 mps 718 mmHg 43%
    20:00 +20°C° 0 mm 1 mps 719 mmHg 45%
    21:00 +19°C° 0 mm 1 mps 719 mmHg 45%
    22:00 +19°C° 0 mm 1 mps 718 mmHg 46%
    23:00 +18°C° 0 mm 1 mps 718 mmHg 47%

    Day after tomorrow, 8 December, Sunday

    Time Temperature Precipitation Wind Pressure Humidity
    00:00 +18°C° 0 mm 1 mps 718 mmHg 48%
    01:00 +16°C° 0 mm 1 mps 718 mmHg 49%
    02:00 +16°C° 0 mm 1 mps 718 mmHg 50%
    03:00 +15°C° 0 mm 2 mps 718 mmHg 52%
    04:00 +15°C° 0 mm 2 mps 718 mmHg 53%
    05:00 +15°C° 0 mm 2 mps 718 mmHg 55%
    06:00 +16°C° 0 mm 2 mps 719 mmHg 53%
    07:00 +17°C° 0 mm 2 mps 719 mmHg 51%
    08:00 +18°C° 0 mm 2 mps 720 mmHg 49%
    09:00 +20°C° 0 mm 2 mps 720 mmHg 45%
    10:00 +23°C° 0 mm 2 mps 720 mmHg 41%
    11:00 +25°C° 0 mm 2 mps 720 mmHg 37%
    12:00 +26°C° 0 mm 2 mps 719 mmHg 35%
    13:00 +27°C° 0 mm 1 mps 719 mmHg 32%
    14:00 +27°C° 0 mm 1 mps 718 mmHg 30%
    15:00 +26°C° 0 mm 1 mps 718 mmHg 33%
    16:00 +24°C° 0 mm 1 mps 718 mmHg 36%
    17:00 +23°C° 0 mm 1 mps 718 mmHg 40%
    18:00 +22°C° 0 mm 1 mps 718 mmHg 41%
    19:00 +21°C° 0 mm 1 mps 718 mmHg 42%
    20:00 +20°C° 0 mm 1 mps 719 mmHg 43%
    21:00 +20°C° 0 mm 1 mps 719 mmHg 44%
    22:00 +19°C° 0 mm 1 mps 718 mmHg 45%
    23:00 +18°C° 0 mm 2 mps 718 mmHg 46%

    9 December, Monday

    Time Temperature Precipitation Wind Pressure Humidity
    00:00 +18°C° 0 mm 1 mps 718 mmHg 47%
    01:00 +18°C° 0 mm 1 mps 718 mmHg 49%
    02:00 +16°C° 0 mm 1 mps 718 mmHg 50%
    03:00 +16°C° 0 mm 2 mps 718 mmHg 52%
    04:00 +15°C° 0 mm 2 mps 718 mmHg 54%
    05:00 +15°C° 0 mm 2 mps 718 mmHg 55%
    06:00 +16°C° 0 mm 2 mps 718 mmHg 55%
    07:00 +17°C° 0 mm 2 mps 719 mmHg 54%
    08:00 +17°C° 0 mm 2 mps 720 mmHg 54%
    09:00 +20°C° 0 mm 2 mps 720 mmHg 48%
    10:00 +23°C° 0 mm 2 mps 720 mmHg 43%
    11:00 +25°C° 0 mm 2 mps 720 mmHg 38%
    12:00 +26°C° 0 mm 2 mps 719 mmHg 34%
    13:00 +26°C° 0 mm 2 mps 718 mmHg 31%
    14:00 +27°C° 0 mm 1 mps 718 mmHg 28%
    15:00 +26°C° 0 mm 1 mps 718 mmHg 31%
    16:00 +24°C° 0 mm 1 mps 717 mmHg 34%
    17:00 +23°C° 0 mm 2 mps 717 mmHg 38%
    18:00 +22°C° 0 mm 1 mps 717 mmHg 38%
    19:00 +22°C° 0 mm 1 mps 718 mmHg 39%
    20:00 +21°C° 0 mm 1 mps 718 mmHg 39%
    21:00 +20°C° 0 mm 1 mps 718 mmHg 41%
    22:00 +20°C° 0 mm 1 mps 718 mmHg 43%
    23:00 +19°C° 0 mm 1 mps 718 mmHg 45%

    10 December, Tuesday

    Time Temperature Precipitation Wind Pressure Humidity
    00:00 +18°C° 0 mm 1 mps 718 mmHg 47%
    01:00 +17°C° 0 mm 2 mps 717 mmHg 49%
    02:00 +16°C° 0 mm 2 mps 717 mmHg 51%
    03:00 +15°C° 0 mm 2 mps 717 mmHg 53%
    04:00 +15°C° 0 mm 2 mps 717 mmHg 55%
    05:00 +14°C° 0 mm 2 mps 717 mmHg 57%
    06:00 +15°C° 0 mm 2 mps 717 mmHg 55%
    07:00 +16°C° 0 mm 2 mps 718 mmHg 53%
    08:00 +17°C° 0 mm 2 mps 719 mmHg 52%
    09:00 +20°C° 0 mm 2 mps 719 mmHg 47%
    10:00 +23°C° 0 mm 2 mps 719 mmHg 41%
    11:00 +25°C° 0 mm 2 mps 719 mmHg 36%
    12:00 +26°C° 0 mm 2 mps 718 mmHg 33%
    13:00 +27°C° 0 mm 2 mps 717 mmHg 29%
    14:00 +27°C° 0 mm 1 mps 717 mmHg 25%
    15:00 +26°C° 0 mm 1 mps 716 mmHg 28%
    16:00 +24°C° 0 mm 1 mps 716 mmHg 31%
    17:00 +23°C° 0 mm 1 mps 716 mmHg 34%
    18:00 +22°C° 0 mm 1 mps 716 mmHg 35%
    19:00 +21°C° 0 mm 1 mps 716 mmHg 37%
    20:00 +20°C° 0 mm 1 mps 716 mmHg 38%
    21:00 +19°C° 0 mm 1 mps 716 mmHg 39%
    22:00 +19°C° 0 mm 1 mps 716 mmHg 41%
    23:00 +16°C° 0 mm 0 mps 716 mmHg 42%

    11 December, Wednesday

    Time Temperature Precipitation Wind Pressure Humidity
    00:00 +16°C° 0 mm 1 mps 716 mmHg 43%
    01:00 +16°C° 0 mm 1 mps 716 mmHg 45%
    02:00 +15°C° 0 mm 1 mps 716 mmHg 46%
    03:00 +15°C° 0 mm 1 mps 716 mmHg 48%
    04:00 +15°C° 0 mm 1 mps 716 mmHg 50%
    05:00 +14°C° 0 mm 1 mps 715 mmHg 51%
    06:00 +15°C° 0 mm 1 mps 716 mmHg 50%
    07:00 +16°C° 0 mm 1 mps 717 mmHg 49%
    08:00 +17°C° 0 mm 2 mps 718 mmHg 48%
    09:00 +19°C° 0 mm 2 mps 718 mmHg 43%
    10:00 +23°C° 0 mm 2 mps 717 mmHg 38%
    11:00 +25°C° 0 mm 2 mps 717 mmHg 33%
    12:00 +26°C° 0 mm 2 mps 717 mmHg 31%
    13:00 +27°C° 0 mm 1 mps 716 mmHg 28%
    14:00 +28°C° 0 mm 1 mps 716 mmHg 25%
    15:00 +26°C° 0 mm 1 mps 715 mmHg 29%
    16:00 +24°C° 0 mm 1 mps 715 mmHg 32%
    17:00 +23°C° 0 mm 1 mps 715 mmHg 36%
    18:00 +22°C° 0 mm 1 mps 715 mmHg 38%
    19:00 +21°C° 0 mm 1 mps 716 mmHg 40%
    20:00 +20°C° 0 mm 1 mps 716 mmHg 42%
    21:00 +19°C° 0 mm 1 mps 716 mmHg 43%
    22:00 +19°C° 0 mm 1 mps 716 mmHg 44%
    23:00 +19°C° 0 mm 1 mps 716 mmHg 45%
    Show more